[[{"header":{"parameterUnit":"m.s-1","parameterCategory":1,"la1":30.2992,"la2":30.254,"lo1":-89.0895,"lo2":-89.0443,"dy":0.0025,"dx":0.0025,"nx":19,"ny":19,"refTime":"2026-03-18T09:00:00:Z","depth":0,"parameterNumber":2,"parameterNumberName":"U-component_of_WINDS"},"data":[0,0,0,-2.9268,-2.9269,-2.9289,-2.9289,-2.9349,-2.935,0,0,0,0,0,0,0,0,0,0,0,-2.9281,-2.9282,-2.9268,-2.9269,-2.9289,-2.9289,-2.9349,-2.935,0,0,0,0,0,0,0,0,0,0,0,-2.928,-2.9282,-2.9283,-2.9269,-2.9289,-2.9289,-2.9349,-2.9322,0,0,0,0,0,0,0,0,0,0,-2.9297,-2.9326,-2.9281,-2.9283,-2.9269,-2.9289,-2.9289,-2.932,-2.9324,-2.9354,0,-2.9385,0,-2.9369,-2.9356,-2.9356,0,0,0,-2.9255,-2.9323,-2.9312,-2.9283,-2.927,-2.9289,-2.9276,-2.9322,-2.9326,-2.9359,-2.9385,-2.9387,-2.937,-2.9357,-2.9357,-2.9578,-2.958,0,0,-2.9254,-2.9295,-2.9309,-2.9315,-2.9312,-2.9275,-2.9277,-2.9324,-2.9355,-2.9385,-2.9387,-2.9371,-2.9357,-2.9358,-2.9577,-2.9579,0,0,0,-2.926,-2.9295,-2.9281,-2.9314,-2.9315,-2.9276,-2.9278,-2.9353,-2.9345,-2.9388,-2.9371,-2.9358,-2.9359,-2.9575,-2.9577,-2.9701,0,0,0,-2.9259,-2.9298,-2.9281,-2.9306,-2.9314,-2.9333,-2.9307,-2.9342,-2.9346,-2.9371,-2.9358,-2.936,-2.9573,-2.9576,-2.9693,-2.9753,0,0,0,-2.9273,-2.9299,-2.9308,-2.9308,-2.9318,-2.9332,-2.9326,-2.9342,-2.9337,-2.9356,-2.936,-2.9571,-2.9575,-2.9686,-2.9741,-2.9825,0,0,0,-2.93,-2.9416,-2.9311,-2.9434,-2.9318,-2.9407,-2.9325,-2.9389,-2.9421,-2.9358,-2.9573,-2.9577,-2.9684,-2.9735,-2.9818,-2.9905,-2.9943,0,0,-2.9469,-2.9438,-2.9507,-2.9414,-2.9532,-2.9401,-2.9537,-2.9528,-2.9493,-2.9553,-2.9557,-2.9696,-2.9741,-2.9824,-3.0143,-3.0175,0,0,0,-2.9575,-2.9626,-2.9648,-2.968,-2.9676,-2.9678,-2.9644,-2.9641,-2.969,-2.9531,-2.9746,-2.9771,-2.9819,-2.9858,-2.9885,-2.9924,-2.9596,-2.9596,-2.9595,-2.9872,-2.9822,-2.9935,-2.9889,-2.9921,-2.9886,-2.9909,-2.99,-2.9838,-2.9891,-2.9909,-3.0108,-3.0156,-3.0176,-3.0218,-2.9948,-2.9948,-2.9949,-2.9949,-3.0117,-3.0183,-3.0101,-3.0182,-3.013,-3.0197,-3.017,-3.0125,-3.0183,-3.009,-3.0129,-3.0033,-3.0212,-3.0246,-2.9958,-2.9956,-2.9955,-2.9954,-2.9954,-3.0308,-3.0331,-3.0326,-3.037,-3.041,-3.0359,-3.042,-3.0369,-3.0322,-3.0361,-3.0377,-3.0375,-3.0369,-3.0372,-3.0372,-3.0373,-3.0374,-3.0374,-3.0375,-3.0509,-3.0499,-3.0556,-3.0564,-3.058,-3.0595,-3.0564,-3.058,-3.0584,-3.0543,-3.0543,-3.048,-3.0237,-3.0179,-3.0385,-3.0383,-3.0382,-3.0381,-3.038,-3.078,-3.0711,-3.0799,-3.0815,-3.0823,-3.087,-3.0804,-3.0841,-3.0847,-3.088,-3.0808,-3.0636,-3.0601,-3.0579,-3.0531,-3.0816,-3.0816,-3.0816,-3.0816,-3.0943,-3.0921,-3.1001,-3.1031,-3.1056,-3.1007,-3.1112,-3.1091,-3.1059,-3.106,-3.1011,-3.0942,-3.0922,-3.0899,-3.0871,-3.0825,-3.1178,-3.1179,-3.1179,-3.1109,-3.1087,-3.1184,-3.1151,-3.1155,-3.116,-3.1259,-3.13,-3.1249,-3.1193,-3.1061,-3.1046,-3.0934,-3.0899,-3.0841,-3.0798,-3.0713,0,0]},{"header":{"parameterUnit":"m.s-1","parameterCategory":1,"la1":30.2992,"la2":30.254,"lo1":-89.0895,"lo2":-89.0443,"dy":0.0025,"dx":0.0025,"nx":19,"ny":19,"refTime":"2026-03-18T09:00:00:Z","depth":0,"parameterNumber":3,"parameterNumberName":"V-component_of_WINDS"},"data":[0,0,0,-0.5007,-0.5008,-0.5074,-0.5074,-0.5161,-0.5162,0,0,0,0,0,0,0,0,0,0,0,-0.4989,-0.4989,-0.5006,-0.5008,-0.5074,-0.5074,-0.5161,-0.5162,0,0,0,0,0,0,0,0,0,0,0,-0.4988,-0.4989,-0.499,-0.5008,-0.5073,-0.5074,-0.5161,-0.511,0,0,0,0,0,0,0,0,0,0,-0.5046,-0.5031,-0.4989,-0.499,-0.5009,-0.5073,-0.5074,-0.5108,-0.5113,-0.5133,0,-0.515,0,-0.5157,-0.5168,-0.5168,0,0,0,-0.5007,-0.5026,-0.5042,-0.499,-0.5009,-0.5073,-0.5044,-0.5111,-0.5117,-0.514,-0.5151,-0.5154,-0.5159,-0.5168,-0.5169,-0.5283,-0.5283,0,0,-0.5004,-0.5002,-0.5038,-0.5047,-0.5036,-0.5042,-0.5046,-0.5115,-0.5127,-0.5151,-0.5156,-0.516,-0.5169,-0.517,-0.5282,-0.5283,0,0,0,-0.4994,-0.4999,-0.5013,-0.5043,-0.5055,-0.5044,-0.5048,-0.5123,-0.5128,-0.5157,-0.5161,-0.517,-0.5171,-0.5281,-0.5282,-0.531,0,0,0,-0.4992,-0.4993,-0.5012,-0.5011,-0.5053,-0.509,-0.5056,-0.5124,-0.5131,-0.5161,-0.517,-0.5172,-0.5281,-0.5282,-0.5308,-0.5324,0,0,0,-0.4984,-0.4992,-0.5002,-0.5011,-0.5039,-0.5089,-0.5097,-0.5125,-0.5134,-0.5168,-0.5172,-0.528,-0.5282,-0.5306,-0.5321,-0.5355,0,0,0,-0.4975,-0.5026,-0.5003,-0.506,-0.5039,-0.5104,-0.5097,-0.5146,-0.5179,-0.517,-0.5281,-0.5282,-0.5305,-0.5319,-0.5353,-0.5385,-0.5397,0,0,-0.5038,-0.5033,-0.5067,-0.5049,-0.5118,-0.5095,-0.5168,-0.52,-0.5205,-0.5257,-0.5259,-0.5308,-0.5321,-0.5354,-0.5463,-0.5473,0,0,0,-0.5086,-0.5111,-0.513,-0.516,-0.5185,-0.5209,-0.5229,-0.5241,-0.5285,-0.5231,-0.5329,-0.5336,-0.5356,-0.5371,-0.538,-0.5398,-0.5288,-0.5288,-0.5288,-0.5173,-0.5177,-0.5234,-0.5245,-0.5275,-0.5295,-0.532,-0.5339,-0.5334,-0.5357,-0.5373,-0.5438,-0.5456,-0.5463,-0.5481,-0.5388,-0.5388,-0.5388,-0.5388,-0.5267,-0.5303,-0.5294,-0.5346,-0.535,-0.5394,-0.5415,-0.541,-0.5452,-0.5426,-0.5444,-0.5418,-0.5473,-0.549,-0.539,-0.539,-0.539,-0.5389,-0.5389,-0.5327,-0.5345,-0.5357,-0.5402,-0.5436,-0.5445,-0.5486,-0.5487,-0.5488,-0.5506,-0.5524,-0.5524,-0.5525,-0.5514,-0.5514,-0.5514,-0.5514,-0.5515,-0.5515,-0.5384,-0.5398,-0.5432,-0.5462,-0.5482,-0.5509,-0.5529,-0.5549,-0.5571,-0.5569,-0.5569,-0.5563,-0.5477,-0.5457,-0.5518,-0.5518,-0.5517,-0.5517,-0.5517,-0.5483,-0.546,-0.5513,-0.5533,-0.5569,-0.5604,-0.5603,-0.5644,-0.566,-0.5681,-0.567,-0.5606,-0.5601,-0.5595,-0.5578,-0.5668,-0.5668,-0.5668,-0.5668,-0.5535,-0.5532,-0.5587,-0.5619,-0.565,-0.5655,-0.5716,-0.5732,-0.5745,-0.5756,-0.5742,-0.572,-0.5713,-0.5713,-0.5704,-0.5689,-0.5804,-0.5804,-0.5804,-0.5597,-0.5596,-0.5649,-0.566,-0.5688,-0.5712,-0.577,-0.5808,-0.5818,-0.581,-0.5765,-0.5759,-0.5722,-0.571,-0.5704,-0.5689,-0.5661,0,0]}]]